Weather History for Perry, FL

Change the Weather History Date:

Tuesday, April 23, 2013

  Actual Average (KCTY) Record (KCTY)
Temperature  
Mean Temperature 66 °F 68 °F  
Max Temperature 81 °F 82 °F 89 °F (1999)
Min Temperature 53 °F 55 °F 46 °F (2007)
Degree Days  
Heating Degree Days 0 1  
Month to date heating degree days 44  
Since 1 July heating degree days 1299  
Cooling Degree Days 2 4  
Month to date cooling degree days 74  
Year to date cooling degree days 148  
Growing Degree Days 16 (Base 50)    
Moisture  
Dew Point 58 °F    
Average Humidity 64    
Maximum Humidity 100    
Minimum Humidity 43    
Precipitation  
Precipitation 0.03 in 0.07 in 0.70 in (2005)
Month to date precipitation 2.57  
Year to date precipitation 14.09  
Sea Level Pressure  
Sea Level Pressure 30.12 in    
Wind  
Wind Speed 2 mph (ENE)    
Max Wind Speed 9 mph    
Max Gust Speed -    
Visibility 10 miles    
Events      
T = Trace of Precipitation, MM = Missing Value Source: NWS Daily Summary

Daily Weather History Graph

Daily Weather History Graph

Search for Another Location

Airport:

Trip Planner

Search our weather history database for the weather conditions in past years. The results will help you decide how hot, cold, wet, or windy it might be!

Date:

Astronomy

Apr. 23, 2013 Rise Set
Actual Time 6:58 AM EDT 8:06 PM EDT
Civil Twilight 6:33 AM EDT 8:31 PM EDT
Nautical Twilight 6:04 AM EDT 9:01 PM EDT
Astronomical Twilight 5:33 AM EDT 9:32 PM EDT
Moon 6:07 PM EDT (4/23) 5:16 AM EDT (4/23)
Length of Visible Light 13h 58m
Length of Day
13h 08m
Waxing Gibbous, 94% of the Moon is Illuminated
Apr 23
Waxing Gibbous
Apr 25
Full
May 2
Last Quarter
May 9
New
May 18
First Quarter

Hourly Weather History & Observations

Time (EDT) Temp. Heat Index Dew Point Humidity Pressure Visibility Wind Dir Wind Speed Gust Speed Precip Events Conditions
12:15 AM 57.2 °F - - N/A% 30.16 in 7.0 mi Calm Calm - N/A   Clear
12:35 AM 57.2 °F - - N/A% 30.16 in 5.0 mi Calm Calm - N/A   Haze
12:53 AM 55.9 °F - 54.0 °F 93% 30.14 in - Calm Calm - N/A   Unknown
12:55 AM 57.2 °F - - N/A% 30.15 in 10.0 mi Calm Calm - N/A   Clear
1:15 AM 55.4 °F - - N/A% 30.15 in 4.0 mi Calm Calm - N/A   Haze
1:35 AM 55.4 °F - - N/A% 30.14 in 10.0 mi Calm Calm - N/A   Clear
1:53 AM 55.9 °F - 52.0 °F 87% 30.12 in - Calm Calm - N/A   Unknown
1:55 AM 55.4 °F - - N/A% 30.13 in 10.0 mi Calm Calm - N/A   Clear
2:15 AM 55.4 °F - - N/A% 30.13 in 10.0 mi Calm Calm - N/A   Clear
2:35 AM 55.4 °F - - N/A% 30.12 in 10.0 mi Calm Calm - N/A   Clear
2:53 AM 55.0 °F - 51.1 °F 86% 30.10 in - Calm Calm - N/A   Unknown
3:15 AM 55.4 °F - - N/A% 30.11 in 10.0 mi Calm Calm - N/A   Clear
3:35 AM 53.6 °F - - N/A% 30.10 in 10.0 mi Calm Calm - N/A   Clear
3:53 AM 54.0 °F - 51.1 °F 90% 30.09 in - Calm Calm - N/A   Unknown
3:55 AM 53.6 °F - - N/A% 30.11 in 10.0 mi Calm Calm - N/A   Clear
4:15 AM 53.6 °F - - N/A% 30.10 in 10.0 mi Calm Calm - N/A   Clear
4:35 AM 53.6 °F - - N/A% 30.10 in 10.0 mi NE 3.5 mph - N/A   Clear
4:53 AM 53.1 °F - 50.0 °F 89% 30.09 in - Calm Calm - 0.01 in   Unknown
4:55 AM 53.6 °F - - N/A% 30.10 in 10.0 mi Calm Calm - N/A   Clear
5:15 AM 53.6 °F - - N/A% 30.10 in 10.0 mi Calm Calm - N/A   Clear
5:35 AM 53.6 °F - - N/A% 30.11 in 10.0 mi Calm Calm - N/A   Clear
5:53 AM 53.1 °F - 50.0 °F 89% 30.10 in - Calm Calm - N/A   Unknown
5:55 AM 53.6 °F - - N/A% 30.11 in 10.0 mi Calm Calm - N/A   Clear
6:15 AM 53.6 °F - - N/A% 30.11 in 10.0 mi NE 3.5 mph - N/A   Clear
6:35 AM 53.6 °F - - N/A% 30.12 in 10.0 mi NNE 3.5 mph - N/A   Clear
6:53 AM 53.1 °F - 51.1 °F 93% 30.12 in - Calm Calm - N/A   Unknown
6:55 AM 53.6 °F - - N/A% 30.13 in 10.0 mi Calm Calm - N/A   Clear
7:15 AM 53.6 °F - - N/A% 30.14 in 10.0 mi Calm Calm - N/A   Clear
7:35 AM 53.6 °F - - N/A% 30.15 in 10.0 mi NNE 3.5 mph - N/A   Clear
7:53 AM 55.0 °F - 52.0 °F 89% 30.14 in - NE 3.5 mph - N/A   Unknown
7:55 AM 55.4 °F - - N/A% 30.15 in 10.0 mi Calm Calm - N/A   Clear
8:15 AM 55.4 °F - - N/A% 30.16 in 10.0 mi NE 5.8 mph - N/A   Clear
8:35 AM 57.2 °F - - N/A% 30.16 in 10.0 mi NE 6.9 mph - N/A   Clear
8:53 AM 60.1 °F - 54.0 °F 80% 30.15 in - NE 6.9 mph - N/A   Unknown
8:55 AM 59.0 °F - - N/A% 30.17 in 10.0 mi NE 6.9 mph - N/A   Clear
9:15 AM 60.8 °F - - N/A% 30.17 in 10.0 mi ENE 5.8 mph - N/A   Clear
9:35 AM 62.6 °F - - N/A% 30.17 in 10.0 mi NE 6.9 mph - N/A   Clear
9:53 AM 64.0 °F - 55.0 °F 73% 30.16 in - ENE 6.9 mph - N/A   Unknown
9:55 AM 64.4 °F - - N/A% 30.17 in 10.0 mi NE 8.1 mph - N/A   Clear
10:15 AM 66.2 °F - - N/A% 30.17 in 10.0 mi ENE 4.6 mph - N/A   Clear
10:35 AM 68.0 °F - - N/A% 30.17 in 10.0 mi ENE 4.6 mph - N/A   Clear
10:53 AM 69.1 °F - 54.0 °F 58% 30.16 in - NE 6.9 mph - N/A   Unknown
10:55 AM 69.8 °F - - N/A% 30.17 in 10.0 mi NNE 6.9 mph - N/A   Clear
11:15 AM 71.6 °F - 71.6 °F 100% 30.17 in 10.0 mi East 5.8 mph - N/A   Clear
11:35 AM 71.6 °F - 71.6 °F 100% 30.17 in 10.0 mi East 3.5 mph - N/A   Clear
11:53 AM 73.0 °F - 54.0 °F 51% 30.15 in - ENE 9.2 mph - N/A   Unknown
11:55 AM 73.4 °F - 71.6 °F 94% 30.16 in 10.0 mi ENE 4.6 mph - N/A   Clear
12:15 PM 73.4 °F - 68.0 °F 83% 30.16 in 10.0 mi ENE 5.8 mph - N/A   Clear
12:35 PM 75.2 °F - 64.4 °F 69% 30.15 in 10.0 mi NE 8.1 mph - N/A   Clear
12:53 PM 75.0 °F - 54.0 °F 48% 30.14 in - Variable 6.9 mph - N/A   Unknown
12:55 PM 75.2 °F - 60.8 °F 61% 30.15 in 10.0 mi ENE 4.6 mph - N/A   Clear
1:15 PM 75.2 °F - 59.0 °F 57% 30.14 in 10.0 mi East 5.8 mph - N/A   Clear
1:35 PM 77.0 °F - 59.0 °F 54% 30.13 in 10.0 mi NNE 4.6 mph - N/A   Clear
1:53 PM 77.0 °F - 53.1 °F 43% 30.12 in - Variable 5.8 mph - N/A   Unknown
1:55 PM 77.0 °F - 57.2 °F 50% 30.13 in 10.0 mi Calm Calm - N/A   Clear
2:15 PM 77.0 °F - 57.2 °F 50% 30.12 in 10.0 mi NE 6.9 mph - N/A   Clear
2:35 PM 78.8 °F - 59.0 °F 51% 30.11 in 10.0 mi East 5.8 mph - N/A   Clear
2:53 PM 79.0 °F - 55.0 °F 44% 30.09 in - ENE 6.9 mph - N/A   Unknown
2:55 PM 78.8 °F - 59.0 °F 51% 30.11 in 10.0 mi East 6.9 mph - N/A   Clear
3:15 PM 78.8 °F - 57.2 °F 47% 30.11 in 10.0 mi NE 4.6 mph - N/A   Clear
3:35 PM 78.8 °F - 55.4 °F 44% 30.10 in 10.0 mi SE 3.5 mph - N/A   Clear
3:53 PM 78.1 °F - 55.0 °F 45% 30.09 in - NE 4.6 mph - N/A   Unknown
3:55 PM 78.8 °F - 59.0 °F 51% 30.10 in 10.0 mi NE 5.8 mph - N/A   Scattered Clouds
4:15 PM 80.6 °F 81.1 °F 59.0 °F 48% 30.09 in 10.0 mi NE 5.8 mph - N/A   Scattered Clouds
4:35 PM 78.8 °F - 59.0 °F 51% 30.08 in 10.0 mi NE 4.6 mph - N/A   Scattered Clouds
4:53 PM 78.1 °F - 54.0 °F 43% 30.06 in - Variable 3.5 mph - N/A   Unknown
4:55 PM 78.8 °F - 57.2 °F 47% 30.08 in 10.0 mi NNE 5.8 mph - N/A   Mostly Cloudy
5:15 PM 78.8 °F - 59.0 °F 51% 30.08 in 10.0 mi NE 3.5 mph - N/A   Scattered Clouds
5:35 PM 80.6 °F 80.8 °F 57.2 °F 45% 30.08 in 10.0 mi ESE 4.6 mph - N/A   Scattered Clouds
5:53 PM 78.1 °F - 55.0 °F 45% 30.07 in - Calm Calm - N/A   Unknown
5:55 PM 78.8 °F - 59.0 °F 51% 30.08 in 10.0 mi Calm Calm - N/A   Scattered Clouds
6:15 PM 78.8 °F - 57.2 °F 47% 30.08 in 10.0 mi ESE 5.8 mph - N/A   Mostly Cloudy
6:35 PM 78.8 °F - 57.2 °F 47% 30.08 in 10.0 mi Calm Calm - N/A   Scattered Clouds
6:53 PM 78.1 °F - 55.0 °F 45% 30.07 in - Variable 3.5 mph - N/A   Unknown
6:55 PM 78.8 °F - 57.2 °F 47% 30.08 in 10.0 mi East 3.5 mph - N/A   Scattered Clouds
7:15 PM 78.8 °F - 57.2 °F 47% 30.08 in 10.0 mi East 3.5 mph - N/A   Clear
7:35 PM 77.0 °F - 59.0 °F 54% 30.08 in 10.0 mi Calm Calm - N/A   Clear
7:53 PM 75.0 °F - 55.0 °F 50% 30.07 in - Calm Calm - N/A   Unknown
7:55 PM 75.2 °F - 60.8 °F 61% 30.08 in 10.0 mi Calm Calm - N/A   Clear
8:15 PM 73.4 °F - 62.6 °F 69% 30.08 in 10.0 mi Calm Calm - N/A   Clear
8:35 PM 71.6 °F - 68.0 °F 88% 30.08 in 10.0 mi Calm Calm - N/A   Clear
8:53 PM 69.1 °F - 55.9 °F 63% 30.07 in - Calm Calm - 0.01 in   Unknown
8:55 PM 69.8 °F - 69.8 °F 100% 30.09 in 10.0 mi Calm Calm - N/A   Clear
9:15 PM 64.4 °F - - N/A% 30.10 in 10.0 mi Calm Calm - N/A   Clear
9:35 PM 64.4 °F - - N/A% 30.11 in 10.0 mi Calm Calm - N/A   Clear
9:53 PM 64.0 °F - 57.0 °F 78% 30.10 in - Calm Calm - N/A   Unknown
9:55 PM 64.4 °F - - N/A% 30.11 in 10.0 mi Calm Calm - N/A   Clear
10:15 PM 66.2 °F - - N/A% 30.12 in 10.0 mi East 5.8 mph - N/A   Clear
10:35 PM 68.0 °F - - N/A% 30.12 in 10.0 mi East 5.8 mph - N/A   Clear
10:53 PM 66.9 °F - 55.0 °F 66% 30.12 in - ESE 5.8 mph - 0.01 in   Unknown
10:55 PM 68.0 °F - - N/A% 30.13 in 10.0 mi East 6.9 mph - N/A   Clear
11:15 PM 66.2 °F - - N/A% 30.13 in 10.0 mi ESE 5.8 mph - N/A   Clear
11:35 PM 64.4 °F - - N/A% 30.14 in 10.0 mi ESE 5.8 mph - N/A   Clear
11:53 PM 63.0 °F - 55.0 °F 75% 30.12 in - ESE 4.6 mph - N/A   Unknown
11:55 PM 62.6 °F - - N/A% 30.14 in 10.0 mi East 4.6 mph - N/A   Clear